| time (UTC) | temp C | wind direction | speed KPH | gust KPH | rain 1hr cm | rain 24hr cm | rain mn cm | humidity % | barometer mb |
| 20260507180101 | 13 | 155 | 1.6 | 12.9 | 0.00 | 0.38 | 0.00 | 84 | 1013.0 |
| 20260507174556 | 13 | 280 | 1.6 | 9.7 | 0.00 | 0.43 | 0.00 | 83 | 1013.0 |
| 20260507173059 | 13 | 208 | 3.2 | 11.3 | 0.00 | 0.43 | 0.00 | 83 | 1012.8 |
| 20260507171559 | 14 | 0 | 1.6 | 14.5 | 0.00 | 0.43 | 0.00 | 82 | 1012.6 |
| 20260507164626 | 13 | 263 | 1.6 | 6.4 | 0.00 | 0.43 | 0.00 | 81 | 1012.4 |
| 20260507163101 | 13 | 271 | 0.0 | 6.4 | 0.00 | 0.43 | 0.00 | 77 | 1012.7 |
| 20260507161606 | 14 | 253 | 0.0 | 6.4 | 0.00 | 0.43 | 0.00 | 73 | 1012.7 |
| 20260507160057 | 15 | 196 | 1.6 | 8.0 | 0.00 | 0.43 | 0.00 | 69 | 1012.6 |
| 20260507154556 | 15 | 106 | 1.6 | 9.7 | 0.00 | 0.43 | 0.00 | 71 | 1012.8 |
| 20260507153054 | 16 | 0 | 0.0 | 3.2 | 0.00 | 0.43 | 0.00 | 72 | 1012.5 |
| 20260507151556 | 17 | 0 | 1.6 | 9.7 | 0.00 | 0.43 | 0.00 | 73 | 1013.0 |
| 20260507150058 | 16 | 88 | 0.0 | 0.0 | 0.00 | 0.43 | 0.00 | 78 | 1013.0 |
| 20260507144600 | 15 | 0 | 0.0 | 4.8 | 0.00 | 0.43 | 0.00 | 82 | 1013.3 |
| 20260507143108 | 17 | 0 | 3.2 | 9.7 | 0.00 | 0.43 | 0.00 | 74 | 1013.3 |
| 20260507141611 | 17 | 208 | 1.6 | 9.7 | 0.00 | 0.43 | 0.00 | 74 | 1013.4 |
| 20260507140058 | 16 | 0 | 1.6 | 6.4 | 0.00 | 0.43 | 0.00 | 72 | 1013.5 |
| 20260507134617 | 16 | 0 | 1.6 | 9.7 | 0.00 | 0.46 | 0.00 | 80 | 1013.7 |
| 20260507133106 | 16 | 80 | 1.6 | 8.0 | 0.00 | 0.46 | 0.00 | 80 | 1013.7 |
| 20260507131612 | 16 | 0 | 0.0 | 8.0 | 0.00 | 0.46 | 0.00 | 80 | 1013.9 |
| 20260507130058 | 16 | 168 | 1.6 | 8.0 | 0.00 | 0.46 | 0.00 | 82 | 1014.0 |
| 20260507124558 | 15 | 0 | 0.0 | 11.3 | 0.00 | 0.46 | 0.00 | 86 | 1014.0 |
| 20260507123112 | 15 | 155 | 1.6 | 6.4 | 0.00 | 0.46 | 0.00 | 86 | 1014.2 |
| 20260507121557 | 16 | 184 | 3.2 | 9.7 | 0.00 | 0.46 | 0.00 | 87 | 1014.4 |
| 20260507114600 | 15 | 132 | 1.6 | 6.4 | 0.00 | 0.46 | 0.00 | 92 | 1014.4 |
| 20260507113057 | 15 | 109 | 1.6 | 8.0 | 0.00 | 0.46 | 0.00 | 100 | 1014.5 |
| 20260507111559 | 12 | 234 | 4.8 | 9.7 | 0.00 | 0.46 | 0.00 | 97 | 1014.6 |
| 20260507104601 | 12 | 0 | 1.6 | 11.3 | 0.00 | 0.46 | 0.00 | 95 | 1014.7 |
| 20260507103053 | 13 | 238 | 0.0 | 4.8 | 0.00 | 0.46 | 0.00 | 99 | 1014.7 |
| 20260507101557 | 12 | 104 | 1.6 | 11.3 | 0.00 | 0.46 | 0.00 | 93 | 1014.9 |
| 20260507100101 | 13 | 103 | 1.6 | 8.0 | 0.00 | 0.46 | 0.00 | 99 | 1015.0 |
| 20260507094557 | 13 | 103 | 1.6 | 9.7 | 0.00 | 0.46 | 0.00 | 99 | 1014.7 |
| 20260507093054 | 13 | 88 | 3.2 | 11.3 | 0.00 | 0.46 | 0.00 | 98 | 1015.0 |
| 20260507091557 | 12 | 111 | 3.2 | 9.7 | 0.00 | 0.46 | 0.00 | 100 | 1015.0 |
| 20260507084557 | 11 | 65 | 1.6 | 6.4 | 0.00 | 0.46 | 0.00 | 100 | 1014.9 |
| 20260507083058 | 11 | 0 | 0.0 | 4.8 | 0.00 | 0.46 | 0.00 | 100 | 1014.8 |
| 20260507081556 | 11 | 0 | 0.0 | 6.4 | 0.00 | 0.46 | 0.00 | 100 | 1014.9 |
| 20260507080116 | 10 | 119 | 3.2 | 9.7 | 0.00 | 0.46 | 0.00 | 100 | 1014.6 |
| 20260507074557 | 10 | 165 | 0.0 | 4.8 | 0.00 | 0.46 | 0.00 | 100 | 1014.7 |
| 20260507073057 | 8 | 108 | 3.2 | 9.7 | 0.00 | 0.46 | 0.00 | 100 | 1014.6 |
| 20260507071604 | 7 | 106 | 1.6 | 3.2 | 0.00 | 0.46 | 0.00 | 100 | 1014.6 |
| 20260507070104 | 7 | 103 | 1.6 | 4.8 | 0.00 | 0.46 | 0.00 | 100 | 1014.7 |
| 20260507064634 | 7 | 128 | 1.6 | 4.8 | 0.00 | 0.56 | 0.00 | 100 | 1014.7 |
| 20260507063122 | 7 | 124 | 0.0 | 3.2 | 0.00 | 0.56 | 0.00 | 100 | 1014.6 |
| 20260507061559 | 7 | 125 | 1.6 | 4.8 | 0.00 | 0.56 | 0.00 | 100 | 1014.5 |
| 20260507060115 | 6 | 120 | 1.6 | 3.2 | 0.00 | 0.56 | 0.00 | 100 | 1014.5 |
| 20260507054606 | 6 | 0 | 0.0 | 0.0 | 0.00 | 0.58 | 0.00 | 100 | 1014.5 |
| 20260507053107 | 5 | 0 | 0.0 | 0.0 | 0.00 | 0.58 | 0.00 | 100 | 1014.3 |
| 20260507051606 | 5 | 0 | 0.0 | 0.0 | 0.00 | 0.58 | 0.00 | 100 | 1014.3 |
| 20260507050055 | 6 | 0 | 0.0 | 0.0 | 0.00 | 0.58 | 0.00 | 100 | 1014.2 |
| 20260507044559 | 6 | 0 | 0.0 | 0.0 | 0.00 | 0.58 | 0.00 | 100 | 1014.1 |
| 20260507043100 | 6 | 0 | 0.0 | 0.0 | 0.00 | 0.58 | 0.00 | 100 | 1014.0 |
| 20260507041556 | 6 | 0 | 0.0 | 0.0 | 0.00 | 0.58 | 0.00 | 100 | 1014.0 |
| 20260507040058 | 6 | 0 | 0.0 | 1.6 | 0.00 | 0.58 | 0.00 | 100 | 1014.0 |
| 20260507034555 | 6 | 0 | 0.0 | 4.8 | 0.00 | 0.58 | 0.00 | 100 | 1014.2 |
| 20260507033100 | 6 | 144 | 1.6 | 3.2 | 0.00 | 0.58 | 0.00 | 100 | 1014.2 |
| 20260507031555 | 6 | 0 | 0.0 | 0.0 | 0.00 | 0.58 | 0.00 | 100 | 1014.1 |
| 20260507030057 | 7 | 0 | 0.0 | 1.6 | 0.00 | 0.58 | 0.00 | 100 | 1014.2 |
| 20260507024555 | 7 | 0 | 1.6 | 6.4 | 0.00 | 0.58 | 0.00 | 100 | 1014.3 |
| 20260507023055 | 7 | 205 | 0.0 | 4.8 | 0.00 | 0.58 | 0.00 | 100 | 1014.1 |
| 20260507021556 | 7 | 151 | 0.0 | 0.0 | 0.00 | 0.58 | 0.00 | 100 | 1014.3 |
| 20260507020118 | 7 | 147 | 0.0 | 3.2 | 0.00 | 0.58 | 0.00 | 100 | 1014.2 |
| 20260507014601 | 7 | 147 | 0.0 | 3.2 | 0.00 | 0.58 | 0.00 | 100 | 1014.4 |
| 20260507013102 | 7 | 0 | 0.0 | 3.2 | 0.00 | 0.58 | 0.00 | 100 | 1014.4 |
| 20260507011553 | 7 | 139 | 1.6 | 6.4 | 0.00 | 0.58 | 0.00 | 100 | 1014.4 |
| 20260507010110 | 7 | 0 | 0.0 | 4.8 | 0.00 | 0.58 | 0.00 | 100 | 1014.5 |
| 20260507004557 | 7 | 185 | 0.0 | 11.3 | 0.00 | 0.58 | 0.00 | 100 | 1014.6 |
| 20260507003054 | 7 | 0 | 0.0 | 4.8 | 0.00 | 0.58 | 0.00 | 100 | 1014.8 |
| 20260507001605 | 7 | 5 | 1.6 | 6.4 | 0.00 | 0.58 | 0.00 | 100 | 1014.7 |
| 20260507000059 | 7 | 161 | 1.6 | 6.4 | 0.00 | 0.58 | 0.00 | 100 | 1014.7 |
| 20260506234600 | 7 | 112 | 1.6 | 4.8 | 0.00 | 0.58 | 0.00 | 100 | 1014.7 |
| 20260506233100 | 7 | 184 | 1.6 | 6.4 | 0.00 | 0.58 | 0.00 | 100 | 1014.9 |
| 20260506231608 | 7 | 73 | 1.6 | 6.4 | 0.00 | 0.58 | 0.00 | 100 | 1014.9 |
| 20260506230114 | 7 | 0 | 1.6 | 6.4 | 0.00 | 0.58 | 0.00 | 100 | 1014.9 |
| 20260506224556 | 7 | 158 | 1.6 | 8.0 | 0.00 | 0.58 | 0.00 | 100 | 1014.8 |
| 20260506223055 | 8 | 162 | 1.6 | 14.5 | 0.03 | 0.58 | 0.00 | 100 | 1014.8 |
| 20260506221619 | 8 | 200 | 1.6 | 8.0 | 0.08 | 0.58 | 0.00 | 100 | 1014.7 |
| 20260506220122 | 7 | 146 | 0.0 | 8.0 | 0.18 | 0.58 | 0.00 | 100 | 1014.5 |
| 20260506214557 | 8 | 338 | 1.6 | 11.3 | 0.28 | 0.56 | 0.56 | 100 | 1014.6 |
| 20260506213109 | 8 | 130 | 0.0 | 6.4 | 0.33 | 0.56 | 0.56 | 100 | 1014.7 |
| 20260506211558 | 8 | 0 | 0.0 | 4.8 | 0.28 | 0.51 | 0.51 | 100 | 1014.7 |
| 20260506210104 | 8 | 0 | 0.0 | 4.8 | 0.18 | 0.41 | 0.41 | 100 | 1014.6 |
| 20260506204605 | 8 | 0 | 0.0 | 3.2 | 0.03 | 0.25 | 0.25 | 100 | 1014.4 |
| 20260506203055 | 8 | 0 | 0.0 | 4.8 | 0.00 | 0.20 | 0.20 | 100 | 1014.2 |
| 20260506201555 | 8 | 0 | 0.0 | 3.2 | 0.00 | 0.20 | 0.20 | 100 | 1014.0 |
| 20260506200057 | 8 | 0 | 0.0 | 3.2 | 0.00 | 0.20 | 0.20 | 100 | 1014.0 |
| 20260506194556 | 8 | 125 | 0.0 | 6.4 | 0.00 | 0.20 | 0.20 | 100 | 1014.0 |
| 20260506193054 | 8 | 193 | 0.0 | 4.8 | 0.00 | 0.20 | 0.20 | 100 | 1013.8 |
| 20260506191606 | 8 | 194 | 0.0 | 3.2 | 0.00 | 0.20 | 0.20 | 100 | 1013.6 |
| 20260506190057 | 8 | 0 | 0.0 | 4.8 | 0.00 | 0.20 | 0.20 | 100 | 1013.6 |
| 20260506184615 | 8 | 0 | 0.0 | 3.2 | 0.05 | 0.46 | 0.20 | 100 | 1013.2 |
| 20260506183053 | 8 | 150 | 0.0 | 4.8 | 0.05 | 0.46 | 0.20 | 100 | 1013.3 |
| 20260506181602 | 8 | 0 | 0.0 | 4.8 | 0.05 | 0.46 | 0.20 | 100 | 1013.2 |